Volver al catálogo

STARLINK-31463

ActivoComunicacionesVLEO
NORAD 59296·PAYLOAD·🇺🇸 United States

Lanzado Mar 24, 2024 desde Cape Canaveral Space Force Station

Loading…

Próximos Pases (próximas 24 horas)

TLE

ActualizadoSource: CelesTrak SupGP

Época: Sep 14, 2026, 21:25 UTC

1 59296C 24056A   26257.89284722  .00035277  00000+0  12779-2 0  2570
2 59296  43.0023 238.2451 0001517 263.1064 188.2817 15.27556042    19

Sigue STARLINK-31463 en tiempo real con AllMySat

Download on the App Store